Regional Weather Roundup
Issued by NWS

Home | Current Version | Previous Version | Text Only | Print | Product List | Glossary On
Versions: 1 2 3 4 5 6 7 8 9 10 11 12 13 14 15 16 17 18 19 20 21 22 23 24 25 26 27 28 29 30 31 32 33 34 35 36 37 38 39 40 41 42 43 44 45 46 47 48 49 50
000
ASCA44 KEWX 030320
RWRMX

LATIN AMERICA AND CARIBBEAN REGIONAL WEATHER ROUNDUP
NATIONAL WEATHER SERVICE AUSTIN/SAN ANTONIO TX
1000 PM CDT SUN AUG 02 2015

NOTE: "FAIR" INDICATED FEW OR NO CLOUDS BELOW 12,000 FEET WITH NO
SIGNIFICANT WEATHER AND/OR OBSTRUCTIONS TO VISIBILITY.

BAJA CALIFORNIA

CITY           SKY/WX    TMP DP  RH WIND       PRES   REMARKS
LORETO           N/A    N/A N/A N/A MISG        N/A
LA PAZ         PTCLDY    86  72  62 S7        29.79R HX  92
MEXICALI       CLEAR    100  55  22 SE8       29.65R HX  99
S.J. DEL CABO  PTCLDY    88  72  58 SE6       29.77R HX  94
TIJUANA        CLEAR     68  59  73 W10       29.88R

NORTHWESTERN MEXICO

CITY           SKY/WX    TMP DP  RH WIND       PRES   REMARKS
CULIACAN       CLOUDY    84  82  94 CALM      29.80R HX 101
DURANGO        CLEAR     72  48  43 NE3       30.12R
GUAYMAS          N/A    N/A N/A N/A MISG        N/A
HERMOSILLO     MOCLDY    88  73  62 S6        29.78R HX  96
CD. JUAREZ     MOCLDY    84  61  45 N12       29.95R THUNDER
LOS MOCHIS     CLOUDY    88  73  62 SW5       29.77R HX  96
OBREGON          N/A    N/A N/A N/A MISG        N/A

NORTHEASTERN MEXICO

CITY           SKY/WX    TMP DP  RH WIND       PRES   REMARKS
CHIHUAHUA      MOCLDY    81  52  36 N6        30.02R
MATAMOROS        N/A    N/A N/A N/A MISG        N/A
MONCLOVA         N/A    N/A N/A N/A MISG        N/A
MONTERREY      CLEAR     84  66  54 E9        29.87R
NUEVO LAREDO     N/A    N/A N/A N/A MISG        N/A
PIEDRAS NEGRAS CLEAR     90  66  45 E9        29.85  HX  92
REYNOSA        PTCLDY    82  70  65 SE9       29.85R
SALTILLO         N/A    N/A N/A N/A MISG        N/A
TORREON        PTCLDY    91  54  27 CALM      29.93R

WESTERN MEXICO

CITY           SKY/WX    TMP DP  RH WIND       PRES   REMARKS
AGUASCALIENTES PTCLDY    68  57  68 CALM      30.17R
DEL BAJIO      MOCLDY    72  57  60 E5        30.19R
GUADALAJARA    CLOUDY    66  61  82 W5        30.11R
MANZANILLO       N/A    N/A N/A N/A MISG        N/A
MAZATLAN       CLOUDY    79  73  83 W12       29.78R THUNDER
P. VALLARTA    CLOUDY    79  77  94 NE5       29.85R
ZACATECAS      MOCLDY    70  46  43 E6        30.32

CENTRAL MEXICO

CITY           SKY/WX    TMP DP  RH WIND       PRES   REMARKS
MEXICO CITY    PTCLDY    66  50  55 W8        30.26R
PUEBLA         PTCLDY    61  52  72 CALM      30.27R
QUERETARO      MOCLDY    70  57  64 E9        30.25R
S. LUIS POTOSI MOCLDY    68  54  60 E12       30.17R
TAMPICO        CLEAR     82  72  69 E9        29.87R
TOLUCA         MOCLDY    52  50  93 NE6       30.36R

SOUTHERN MEXICO

CITY           SKY/WX    TMP DP  RH WIND       PRES   REMARKS
ACAPULCO       CLEAR     84  77  79 W8        29.79R HX  94
B. DE HUATULCO PTCLDY    82  73  74 CALM      29.88R
OAXACA         CLOUDY    66  57  72 NW6       30.16R
VERACRUZ       CLEAR     82  77  83 NE2       29.87R HX  91
ZIHUATANEJO      N/A    N/A N/A N/A MISG        N/A

YUCATAN PENINSULA

CITY           SKY/WX    TMP DP  RH WIND       PRES   REMARKS
CAMPECHE       MOCLDY    82  77  83 CALM      29.86R HX  91
CANCUN         MOCLDY    82  77  83 E6        29.95R HX  91
CD. DEL CARMEN TSTM      75  72  88 E21       29.89S
COZUMEL        PTCLDY    77  75  94 CALM      29.94S
MERIDA         PTCLDY    84  73  70 E5        29.91R HX  91
TAPACHULA      MOCLDY    82  75  78 CALM      29.84R
TUX. GUTIERREZ CLOUDY    81  68  65 NW5       29.89R
VILLAHERMOSA   PTCLDY    84  77  79 NE6       29.87R HX  94

CENTRAL AMERICA

CITY           SKY/WX    TMP DP  RH WIND       PRES   REMARKS
MANAGUA        PTCLDY    82  70  65 E9        29.80R

CARIBBEAN

CITY           SKY/WX    TMP DP  RH WIND       PRES   REMARKS
CURACAO        PTCLDY    81  73  78 E13       29.92S
KINGSTON       PTCLDY    84  73  70 E5        29.92S HX  91
NASSAU         PTCLDY    82  77  83 VRB1      30.03S HX  91
SAN JUAN       PTCLDY    82  77  83 E7        30.01R HX  91
SANTO DOMINGO  MOCLDY    75  73  94 NE5       29.97R
ST. CROIX      CLOUDY    82  75  78 E16       30.01S
ST. MAARTEN    PTCLDY    82  73  74 E15       30.00S
ST. THOMAS     CLOUDY    84  75  74 E17       30.01R HX  92

$$



USA.gov is the U.S. government's official web portal to all federal, state and local government web resources and services.